Weather History for K42J - January, 2014

Change the Weather History Date:

Thursday, January 16, 2014

  Actual Average (KGNV) Record (KGNV)
Temperature  
Mean Temperature 42 °F 54 °F  
Max Temperature 51 °F 66 °F 84 °F (1928)
Min Temperature 32 °F 42 °F 20 °F (1927)
Degree Days  
Heating Degree Days 24 11  
Month to date heating degree days 184  
Since 1 July heating degree days 641  
Cooling Degree Days 0 0  
Month to date cooling degree days 0  
Year to date cooling degree days 0  
Moisture  
Dew Point 26 °F    
Average Humidity 57    
Maximum Humidity 93    
Minimum Humidity 25    
Precipitation  
Precipitation 0.00 in 0.11 in 1.96 in (1930)
Month to date precipitation 1.53  
Year to date precipitation 1.53  
Snow  
Snow 0.00 in 0.00 in 0.00 in ()
Month to date snowfall 0.0  
Since 1 July snowfall 0.0  
Snow Depth -    
Sea Level Pressure  
Sea Level Pressure 30.11 in    
Wind  
Wind Speed 9 mph (NW)    
Max Wind Speed 15 mph    
Max Gust Speed 20 mph    
Visibility 10 miles    
Events      
T = Trace of Precipitation, MM = Missing Value Source: NWS Daily Summary

Daily Weather History Graph

Daily Weather History Graph

Search for Another Location

Airport or City:

Trip Planner

Search our weather history database for the weather conditions in past years. The results will help you decide how hot, cold, wet, or windy it might be!

Date:

Astronomy

Jan. 16, 2014 Rise Set
Actual Time 7:24 AM EST 5:51 PM EST
Civil Twilight 6:58 AM EST 6:17 PM EST
Nautical Twilight 6:29 AM EST 6:46 PM EST
Astronomical Twilight 6:00 AM EST 7:15 PM EST
Moon 6:35 PM EST (1/16) 7:23 AM EST (1/16)
Length of Visible Light 11h 19m
Length of Day
10h 27m
Full, 100% of the Moon is Illuminated
Jan 16
Full
Jan 24
Last Quarter
Jan 30
New
Feb 6
First Quarter
Feb 14
Full

Hourly Weather History & Observations

Time (EST) Temp. Windchill Dew Point Humidity Pressure Visibility Wind Dir Wind Speed Gust Speed Precip Events Conditions
12:15 AM 51.8 °F - 39.2 °F 62% 30.00 in 10.0 mi NW 13.8 mph 18.4 mph N/A   Overcast
12:35 AM 50.0 °F - 37.4 °F 62% 30.01 in 10.0 mi NW 13.8 mph - N/A   Overcast
12:55 AM 48.2 °F - 37.4 °F 66% 30.01 in 10.0 mi NNW 9.2 mph - N/A   Mostly Cloudy
1:15 AM 48.2 °F - 37.4 °F 66% 30.02 in 10.0 mi NW 9.2 mph - N/A   Scattered Clouds
1:35 AM 46.4 °F 41.5 °F 37.4 °F 71% 30.03 in 10.0 mi NW 10.4 mph - N/A   Mostly Cloudy
1:55 AM 46.4 °F 42.4 °F 39.2 °F 76% 30.04 in 10.0 mi NNW 8.1 mph - N/A   Mostly Cloudy
2:15 AM 46.4 °F 42.4 °F 37.4 °F 71% 30.04 in 10.0 mi NNW 8.1 mph - N/A   Mostly Cloudy
2:35 AM 46.4 °F 42.9 °F 33.8 °F 62% 30.05 in 10.0 mi NW 6.9 mph - N/A   Mostly Cloudy
2:55 AM 44.6 °F 39.2 °F 32.0 °F 61% 30.05 in 10.0 mi NNW 10.4 mph - N/A   Overcast
3:15 AM 44.6 °F 40.2 °F 32.0 °F 61% 30.05 in 10.0 mi NW 8.1 mph - N/A   Mostly Cloudy
3:35 AM 44.6 °F 40.7 °F 32.0 °F 61% 30.05 in 10.0 mi NW 6.9 mph - N/A   Mostly Cloudy
3:55 AM 44.6 °F 38.4 °F 30.2 °F 57% 30.06 in 10.0 mi NW 12.7 mph 17.3 mph N/A   Scattered Clouds
4:15 AM 42.8 °F 36.2 °F 26.6 °F 53% 30.07 in 10.0 mi NW 12.7 mph - N/A   Partly Cloudy
4:35 AM 42.8 °F 36.2 °F 26.6 °F 53% 30.07 in 10.0 mi NW 12.7 mph - N/A   Clear
4:55 AM 41.0 °F 34.3 °F 23.0 °F 49% 30.08 in 10.0 mi NW 11.5 mph - N/A   Clear
5:15 AM 39.2 °F 33.6 °F 24.8 °F 56% 30.08 in 10.0 mi NW 8.1 mph - N/A   Clear
5:35 AM 39.2 °F 34.2 °F 26.6 °F 61% 30.08 in 10.0 mi NW 6.9 mph - N/A   Clear
5:55 AM 37.4 °F 32.8 °F 26.6 °F 65% 30.10 in 10.0 mi NW 5.8 mph - N/A   Clear
6:15 AM 35.6 °F 31.7 °F 28.4 °F 75% 30.10 in 10.0 mi NW 4.6 mph - N/A   Clear
6:35 AM 35.6 °F 32.8 °F 28.4 °F 75% 30.10 in 10.0 mi WNW 3.5 mph - N/A   Clear
6:55 AM 35.6 °F 32.8 °F 28.4 °F 75% 30.10 in 10.0 mi NW 3.5 mph - N/A   Clear
7:15 AM 32.0 °F 28.7 °F 28.4 °F 87% 30.10 in 10.0 mi NW 3.5 mph - N/A   Clear
7:35 AM 33.8 °F 30.8 °F 28.4 °F 81% 30.10 in 10.0 mi NW 3.5 mph - N/A   Clear
7:55 AM 33.8 °F 29.6 °F 30.2 °F 87% 30.11 in 10.0 mi WNW 4.6 mph - N/A   Clear
8:15 AM 35.6 °F 31.7 °F 32.0 °F 87% 30.12 in 10.0 mi WNW 4.6 mph - N/A   Clear
8:35 AM 37.4 °F 32.1 °F 30.2 °F 75% 30.12 in 10.0 mi NW 6.9 mph - N/A   Clear
8:55 AM 39.2 °F 33.6 °F 26.6 °F 61% 30.13 in 10.0 mi NW 8.1 mph - N/A   Clear
9:15 AM 39.2 °F 33.0 °F 23.0 °F 52% 30.14 in 10.0 mi NNW 9.2 mph - N/A   Clear
9:35 AM 41.0 °F 34.3 °F 23.0 °F 49% 30.14 in 10.0 mi NNW 11.5 mph - N/A   Clear
9:55 AM 41.0 °F 35.2 °F 23.0 °F 49% 30.15 in 10.0 mi NNW 9.2 mph - N/A   Clear
10:15 AM 42.8 °F 37.0 °F 21.2 °F 42% 30.15 in 10.0 mi NNW 10.4 mph - N/A   Clear
10:35 AM 44.6 °F 38.8 °F 21.2 °F 39% 30.15 in 10.0 mi NW 11.5 mph 17.3 mph N/A   Clear
10:55 AM 44.6 °F 37.8 °F 19.4 °F 37% 30.15 in 10.0 mi WNW 15.0 mph 19.6 mph N/A   Clear
11:15 AM 44.6 °F 38.8 °F 19.4 °F 37% 30.15 in 10.0 mi NW 11.5 mph - N/A   Clear
11:35 AM 46.4 °F 40.4 °F 17.6 °F 32% 30.14 in 10.0 mi WNW 13.8 mph 18.4 mph N/A   Clear
11:55 AM 46.4 °F 40.7 °F 17.6 °F 32% 30.14 in 10.0 mi NW 12.7 mph 16.1 mph N/A   Clear
12:15 PM 46.4 °F 41.5 °F 14.0 °F 27% 30.12 in 10.0 mi NW 10.4 mph 18.4 mph N/A   Clear
12:35 PM 46.4 °F 41.9 °F 14.0 °F 27% 30.11 in 10.0 mi NW 9.2 mph 17.3 mph N/A   Clear
12:55 PM 46.4 °F 40.7 °F 15.8 °F 29% 30.11 in 10.0 mi WNW 12.7 mph - N/A   Clear
1:15 PM 48.2 °F - 17.6 °F 30% 30.10 in 10.0 mi NW 11.5 mph 19.6 mph N/A   Clear
1:35 PM 48.2 °F - 15.8 °F 27% 30.09 in 10.0 mi WNW 10.4 mph 16.1 mph N/A   Clear
1:55 PM 48.2 °F - 15.8 °F 27% 30.09 in 10.0 mi NW 13.8 mph 18.4 mph N/A   Clear
2:15 PM 48.2 °F - 14.0 °F 25% 30.09 in 10.0 mi NW 12.7 mph 17.3 mph N/A   Clear
2:35 PM 48.2 °F - 14.0 °F 25% 30.09 in 10.0 mi NW 9.2 mph - N/A   Clear
2:55 PM 48.2 °F - 14.0 °F 25% 30.09 in 10.0 mi West 11.5 mph 17.3 mph N/A   Clear
3:35 PM 48.2 °F - 14.0 °F 25% 30.09 in 10.0 mi West 11.5 mph - N/A   Clear
3:55 PM 50.0 °F - 17.6 °F 28% 30.09 in 10.0 mi WNW 9.2 mph - N/A   Clear
4:15 PM 48.2 °F - 15.8 °F 27% 30.09 in 10.0 mi West 9.2 mph - N/A   Clear
4:35 PM 48.2 °F - 15.8 °F 27% 30.10 in 10.0 mi West 8.1 mph - N/A   Clear
4:55 PM 48.2 °F - 14.0 °F 25% 30.10 in 10.0 mi West 10.4 mph - N/A   Clear
5:15 PM 48.2 °F - 17.6 °F 30% 30.11 in 10.0 mi West 6.9 mph - N/A   Clear
5:35 PM 48.2 °F - 17.6 °F 30% 30.12 in 10.0 mi WNW 6.9 mph - N/A   Clear
5:55 PM 46.4 °F 44.3 °F 21.2 °F 37% 30.11 in 10.0 mi WNW 4.6 mph - N/A   Clear
6:15 PM 42.8 °F - 26.6 °F 53% 30.12 in 10.0 mi Calm Calm - N/A   Clear
6:35 PM 41.0 °F 38.0 °F 30.2 °F 65% 30.12 in 10.0 mi West 4.6 mph - N/A   Clear
6:55 PM 39.2 °F 35.9 °F 28.4 °F 65% 30.13 in 10.0 mi WNW 4.6 mph - N/A   Clear
7:15 PM 37.4 °F - 30.2 °F 75% 30.13 in 10.0 mi Calm Calm - N/A   Clear
7:35 PM 37.4 °F - 28.4 °F 70% 30.13 in 10.0 mi Calm Calm - N/A   Clear
7:55 PM 35.6 °F - 26.6 °F 70% 30.14 in 10.0 mi Calm Calm - N/A   Clear
8:15 PM 33.8 °F - 28.4 °F 81% 30.14 in 10.0 mi Calm Calm - N/A   Clear
8:35 PM 33.8 °F - 30.2 °F 87% 30.15 in 10.0 mi Calm Calm - N/A   Clear
8:55 PM 33.8 °F - 28.4 °F 81% 30.15 in 10.0 mi Calm Calm - N/A   Clear
9:15 PM 32.0 °F - 28.4 °F 87% 30.16 in 10.0 mi Calm Calm - N/A   Clear
9:35 PM 33.8 °F - 28.4 °F 81% 30.16 in 10.0 mi Calm Calm - N/A   Clear
9:55 PM 33.8 °F 30.8 °F 32.0 °F 93% 30.17 in 10.0 mi SW 3.5 mph - N/A   Clear
10:15 PM 33.8 °F - 30.2 °F 87% 30.17 in 10.0 mi Calm Calm - N/A   Clear
10:35 PM 35.6 °F 32.8 °F 30.2 °F 81% 30.17 in 10.0 mi SW 3.5 mph - N/A   Clear
10:55 PM 35.6 °F - 30.2 °F 81% 30.17 in 10.0 mi Calm Calm - N/A   Clear
11:15 PM 33.8 °F - 30.2 °F 87% 30.17 in 10.0 mi Calm Calm - N/A   Clear
11:35 PM 33.8 °F - 30.2 °F 87% 30.17 in 10.0 mi Calm Calm - N/A   Clear
11:55 PM 33.8 °F - 30.2 °F 87% 30.17 in 10.0 mi Calm Calm - N/A   Clear